Regional Weather Roundup
Issued by NWS

Home | Current Version | Previous Version | Graphics & Text | Print | Product List | Glossary On
Versions: 1 2 3 4 5 6 7 8 9 10 11 12 13 14 15 16 17 18 19 20 21 22 23 24 25 26 27 28 29 30 31 32 33 34 35 36 37 38 39 40 41 42 43 44 45 46 47 48 49 50
000
ASUS44 KMEG 281200
RWRTN
TENNESSEE HOURLY STATE WEATHER ROUNDUP
NATIONAL WEATHER SERVICE MEMPHIS TN
600 AM CST SAT FEB 28 2015

TNZ002-004-019-021-049-052-054-088>092-281300-
WEST TENNESSEE

CITY           SKY/WX    TMP DP  RH WIND       PRES   REMARKS
MEMPHIS INTL   CLOUDY    30  13  49 NE12      30.54R WCI  20
NWS MEMPHIS      N/A     28 N/A N/A MISG        N/A
JACKSON        CLOUDY    27  12  53 NE7       30.56S WCI  19
DYERSBURG      CLOUDY    25   5  42 NE8       30.61R WCI  16
PARIS          CLOUDY    21  10  63 NE7       30.59R WCI  13
$$

TNZ008-025-027-028-033-062-065-066-281300-
NORTH MIDDLE TENNESSEE

CITY           SKY/WX    TMP DP  RH WIND       PRES   REMARKS
NASHVILLE      CLOUDY    25  10  53 NE8       30.59R WCI  16
CLARKSVILLE    CLOUDY    24  12  60 E5        30.60R WCI  18
CROSSVILLE     CLOUDY    22  13  68 NE6       30.50R WCI  14
$$

TNZ061-075-076-078-094-096-097-281300-
SOUTH MIDDLE TENNESSEE

CITY           SKY/WX    TMP DP  RH WIND       PRES   REMARKS
WINCHESTER     CLOUDY    25  18  74 N6        30.52S WCI  18
$$

TNZ017-018-042-046-047-281300-
NORTHEAST TENNESSEE

CITY           SKY/WX    TMP DP  RH WIND       PRES   REMARKS
TRI CITIES     CLOUDY    18  11  74 CALM      30.58R
ELIZABETHTON   CLOUDY    18  14  86 CALM      30.56R
$$

TNZ012-013-036-069-073-074-281300-
CENTRAL EAST TENNESSEE

CITY           SKY/WX    TMP DP  RH WIND       PRES   REMARKS
KNOXVILLE      PTCLDY    24  14  65 NE9       30.56R WCI  14
OAK RIDGE      MOCLDY    26  12  55 NE5       30.59R WCI  20
$$

TNZ083-085-099-281300-
SOUTHEAST TENNESSEE

CITY           SKY/WX    TMP DP  RH WIND       PRES   REMARKS
CHATTANOOGA    MOCLDY    29  14  53 NE8       30.57R WCI  21
$$

SKY/WX REPORTED AS FAIR MEANS FEW OR NO CLOUDS BELOW
12 THOUSAND FEET.




USA.gov is the U.S. government's official web portal to all federal, state and local government web resources and services.